Wind_Speed
35 31 27 26 24 31 42 46 30 43 40 38 38 31 27 28 32 33 33 30 25 23 22 23 26 28 31 34 35 37 40 42 43 44 44 47 49 50 49 48 48 46 45 42
36 33 35 36 25 18 28 31 41 44 46 41 40 36 34 35 34 28 23 23 24 22 22 24 27 30 32 33 35 38 39 41 42 42 44 47 49 48 46 46 45 43 41 39
26 28 27 31 40 44 45 46 45 46 44 41 36 33 28 28 30 26 22 22 22 22 23 26 29 30 31 32 35 37 38 39 40 42 44 46 46 44 43 42 41 39 38 36
19 18 11 27 25 28 33 35 41 45 43 36 27 27 24 24 22 20 21 22 23 23 26 28 29 29 31 33 35 35 36 37 39 42 44 45 42 40 40 39 38 37 35 34
13 20 30 22 9 17 24 27 23 25 21 24 22 23 23 23 22 20 22 24 24 25 26 28 28 28 30 32 33 33 34 36 38 41 42 42 39 38 38 38 36 34 33 33
16 9 11 19 23 21 35 45 33 26 23 20 21 25 21 18 18 21 24 25 25 26 26 26 26 28 30 30 31 31 33 35 37 39 40 40 37 36 36 36 35 34 31 31
35 19 22 25 14 15 13 24 11 10 7 10 13 13 16 16 20 26 26 25 25 25 25 25 25 27 28 28 29 30 32 34 35 37 38 37 35 35 34 35 34 33 31 27
28 18 23 18 25 32 34 25 19 12 14 14 12 13 16 22 27 26 26 26 25 24 23 23 24 26 26 26 27 28 31 32 34 35 36 35 33 33 33 33 33 32 30 27
30 36 35 32 22 16 16 15 13 17 16 14 13 18 23 28 30 28 29 25 22 22 22 22 23 24 24 25 26 27 29 31 32 33 34 33 32 33 33 33 33 32 32 29
35 41 42 42 36 26 19 21 22 20 18 16 17 22 26 31 33 30 27 21 18 19 20 21 22 22 23 24 25 27 29 30 31 33 33 32 32 32 33 34 34 33 32 32
45 42 38 32 27 25 27 25 24 23 19 21 23 27 32 35 29 27 21 15 16 18 19 19 20 21 22 23 25 26 28 29 31 32 33 33 31 32 32 32 34 35 34 34
42 35 32 29 23 22 23 24 22 22 23 26 29 31 34 32 27 22 13 14 16 16 16 17 18 20 21 23 25 26 27 28 30 32 33 33 33 29 28 30 28 30 30 31
33 30 29 28 27 27 26 24 23 24 25 29 33 34 31 28 23 17 13 12 14 14 15 16 18 19 20 22 24 25 26 28 29 31 32 33 33 33 32 24 25 26 27 28
32 33 33 33 32 31 27 27 27 26 30 35 34 32 27 25 18 12 9 12 13 13 15 16 17 18 19 21 23 24 25 26 28 29 31 32 33 33 33 32 29 26 26 29
29 30 28 26 26 27 27 28 33 36 35 37 29 24 24 18 11 7 10 11 12 13 15 16 16 17 18 20 21 22 23 25 26 28 30 32 32 32 31 29 30 29 29 27
38 33 32 35 36 35 32 32 31 35 30 24 22 22 16 10 6 7 10 11 12 13 15 15 15 16 17 18 19 20 22 24 26 27 28 29 30 31 30 30 30 31 32 33
33 35 35 39 36 29 25 30 28 19 21 23 20 15 9 6 6 9 10 11 12 13 14 14 14 15 16 17 18 20 21 23 24 25 27 29 30 30 31 31 31 31 32 33
29 31 26 19 25 29 27 22 21 22 21 18 13 9 6 6 8 9 10 12 12 12 12 13 13 13 14 16 18 19 21 23 24 24 25 27 29 30 30 30 30 30 31 30
18 18 19 20 15 16 20 22 21 18 15 11 8 7 7 8 9 10 11 12 11 11 11 11 11 12 13 15 17 19 21 22 23 23 24 25 27 28 28 28 28 29 30 29
12 14 18 21 22 19 18 17 15 12 10 8 8 7 6 8 10 10 11 10 10 10 10 10 11 11 13 14 16 18 20 21 22 22 23 24 26 27 27 27 27 28 28 28
17 19 18 16 16 16 16 13 11 9 8 7 5 6 8 9 9 10 10 10 10 10 9 9 9 10 11 13 14 16 18 20 21 22 22 22 23 25 26 26 26 27 27 26
16 15 14 13 12 10 9 8 7 5 5 5 6 7 8 9 9 10 10 10 9 8 8 8 8 9 10 11 13 15 17 18 20 21 22 21 22 24 26 26 26 27 25 26
12 11 9 8 7 6 5 5 5 5 5 6 7 7 8 10 10 10 9 9 8 8 8 8 8 8 9 10 11 13 15 17 19 20 21 22 22 22 24 25 25 25 25 25
5 5 4 4 4 3 3 3 4 4 5 6 7 9 9 9 9 9 9 8 8 9 9 9 8 8 8 10 11 12 13 15 16 18 20 21 22 21 21 22 23 24 23 23
2 2 1 0 1 2 3 5 5 6 7 8 9 10 10 9 9 9 9 9 10 10 9 9 9 9 9 10 11 12 11 12 13 15 17 19 20 21 20 20 21 23 22 22
2 2 2 3 4 6 6 7 7 8 9 10 10 10 10 10 10 10 10 11 11 10 10 10 10 11 11 11 11 12 12 12 13 14 15 16 19 20 20 19 18 19 20 21
4 5 7 7 8 9 9 10 10 10 11 11 11 11 11 11 11 12 12 12 12 12 12 12 12 12 12 12 12 12 12 12 12 13 14 15 16 17 18 19 18 17 18 18
Wind_Direction
239 242 251 254 252 239 230 240 230 261 260 278 276 275 271 263 267 276 282 280 277 276 277 287 296 301 302 304 309 313 315 317 319 322 323 324 326 327 329 328 328 326 324 322
247 248 252 255 242 216 244 248 252 259 267 273 276 278 275 272 273 272 272 272 273 272 279 293 298 301 303 308 311 315 318 319 321 323 324 326 329 332 332 332 332 332 331 329
252 256 264 261 252 248 251 256 260 257 275 278 281 283 279 271 269 271 266 267 267 272 287 295 299 302 306 309 314 317 319 320 322 324 327 330 333 334 335 337 339 339 338 336
244 251 248 261 262 261 261 262 260 264 272 279 273 273 266 260 265 262 266 266 268 277 290 295 301 303 308 313 316 318 320 322 324 327 330 334 335 337 339 340 343 343 343 343
223 219 250 249 234 249 256 265 257 265 265 270 261 266 258 263 261 265 265 268 269 281 291 297 300 305 310 314 316 319 321 324 326 328 333 335 338 339 339 340 343 344 344 345
219 224 235 262 261 255 258 268 279 272 265 262 261 258 271 263 261 269 271 265 272 284 291 296 301 306 310 313 316 319 322 325 327 331 335 338 339 339 339 338 341 343 346 342
219 236 253 253 247 247 220 271 275 254 250 290 282 266 246 251 275 287 270 264 275 284 291 296 302 306 310 314 317 321 324 327 330 335 338 338 338 337 336 336 341 341 343 342
219 224 247 245 246 238 274 277 274 256 283 292 281 260 259 275 286 281 261 265 275 284 290 295 302 306 310 315 318 322 325 330 335 338 338 337 336 334 334 336 338 340 339 340
219 232 251 256 253 274 255 256 251 269 283 296 275 263 272 275 286 267 255 264 274 283 288 295 300 306 311 314 319 324 329 332 336 340 338 338 335 336 335 334 334 336 335 337
238 243 251 255 260 255 260 243 272 267 272 289 281 282 279 280 278 263 256 262 274 279 287 295 302 307 310 315 322 328 331 334 338 339 340 340 339 335 336 333 333 334 332 336
237 241 249 249 255 265 271 266 265 265 268 291 293 295 286 287 270 252 249 262 266 277 288 297 303 307 312 319 326 329 331 334 338 341 340 344 342 338 337 337 335 336 336 336
242 253 255 264 261 254 260 262 253 249 267 283 289 289 275 270 249 236 242 252 266 279 290 298 303 309 315 321 325 326 331 336 339 341 345 343 340 343 343 340 340 334 333 332
249 254 253 252 250 252 259 248 241 261 275 281 287 277 260 248 226 229 242 258 272 285 295 303 307 310 316 322 324 326 333 338 341 343 344 343 344 341 341 351 342 336 337 338
241 246 247 250 260 265 254 250 262 268 278 282 275 261 239 222 225 226 243 266 280 292 300 303 306 312 318 321 324 329 338 340 341 343 345 346 346 346 346 343 342 346 346 343
239 240 249 249 252 252 252 260 273 277 276 270 250 228 214 216 213 225 258 274 285 294 297 301 307 313 318 321 325 334 338 340 343 347 347 348 347 348 346 347 347 346 346 346
247 244 246 254 257 259 267 270 271 272 253 241 216 205 209 199 204 247 267 278 287 292 296 300 306 311 315 322 333 339 341 342 345 346 348 347 348 348 351 351 349 349 349 352
242 257 254 256 247 254 266 272 254 233 210 195 198 198 181 188 234 257 269 280 286 290 294 299 304 309 317 329 337 342 344 347 348 348 346 348 349 352 353 350 350 352 353 354
232 231 228 238 270 264 248 207 184 182 185 193 187 168 181 222 248 262 273 279 284 287 290 295 303 313 325 335 340 344 347 347 348 349 348 350 352 353 351 351 351 354 355 356
226 230 236 231 211 192 178 170 171 180 182 168 157 185 216 241 260 268 274 280 282 284 289 296 309 322 331 338 342 346 348 348 349 348 349 351 353 351 352 352 354 356 356 357
157 157 152 147 144 151 159 164 172 162 149 164 197 218 243 254 262 269 277 280 283 286 291 306 317 324 333 338 341 344 346 348 350 351 351 352 352 354 356 355 357 359 359 1
123 129 136 141 148 155 161 156 145 156 184 208 227 241 251 261 271 278 280 281 283 284 293 303 313 324 330 336 341 346 347 348 351 352 353 352 354 356 359 359 359 3 0 4
125 130 137 145 148 143 138 146 165 195 222 237 248 259 268 274 277 275 272 270 271 278 290 302 311 317 327 336 342 345 347 350 354 355 355 354 355 359 2 1 3 4 2 6
120 127 128 125 123 131 152 189 219 227 238 251 261 269 275 276 272 270 269 273 276 283 291 297 303 312 324 331 336 341 344 351 354 356 356 359 359 0 3 3 6 3 5 7
97 103 120 142 173 208 219 227 244 254 265 269 268 269 273 275 276 276 275 272 272 275 279 287 296 305 312 319 324 332 339 347 352 354 359 2 3 2 2 3 5 6 8 8
87 88 87 22 307 297 293 289 284 277 272 271 275 280 283 280 277 274 270 267 267 268 275 285 290 293 297 305 314 321 329 337 344 350 358 0 3 5 4 2 5 9 8 12
4 341 324 312 305 297 290 287 284 282 281 281 283 285 285 283 279 275 271 267 267 270 276 281 283 283 286 293 302 310 317 324 332 339 346 356 1 4 4 2 2 8 9 14
296 294 295 295 295 293 290 286 284 284 285 286 286 287 285 283 278 275 272 271 270 271 274 275 276 276 278 284 291 297 304 310 315 323 330 341 349 356 2 3 2 5 6 10
Height
3020 3020 3021 3020 3021 3022 3024 3023 3022 3017 3019 3020 3023 3026 3029 3028 3026 3027 3028 3027 3024 3022 3021 3020 3018 3016 3012 3008 3003 2998 2992 2985 2979 2972 2965 2956 2947 2938 2928 2918 2909 2899 2891 2884
3015 3016 3015 3012 3013 3015 3017 3017 3013 3013 3010 3013 3014 3017 3018 3018 3018 3017 3017 3018 3018 3017 3015 3014 3011 3008 3004 2999 2995 2990 2984 2977 2970 2964 2957 2948 2939 2929 2919 2910 2902 2893 2884 2875
3006 3009 3009 3000 3001 3004 3006 3006 3006 3005 3001 3005 3007 3008 3009 3008 3009 3009 3009 3010 3010 3010 3009 3007 3005 3001 2997 2992 2988 2982 2976 2970 2963 2956 2948 2939 2930 2921 2912 2904 2896 2888 2879 2870
3001 3004 3002 2988 2990 2995 2993 2994 2996 2995 2995 2998 2998 2999 2999 3000 3001 3003 3004 3004 3003 3002 3000 2999 2996 2993 2989 2985 2980 2974 2969 2963 2956 2949 2941 2932 2923 2915 2906 2899 2891 2884 2876 2867
2995 2993 2987 2983 2985 2986 2984 2984 2987 2987 2989 2990 2990 2991 2992 2993 2994 2995 2997 2997 2996 2995 2993 2991 2988 2986 2982 2978 2972 2968 2962 2956 2949 2942 2934 2925 2917 2909 2902 2895 2888 2881 2872 2864
2986 2983 2977 2974 2980 2980 2981 2972 2979 2979 2980 2981 2982 2983 2986 2987 2989 2990 2990 2990 2989 2988 2986 2984 2981 2978 2975 2971 2967 2961 2956 2949 2942 2935 2927 2919 2911 2904 2897 2890 2884 2877 2870 2862
2975 2974 2966 2969 2973 2974 2979 2975 2972 2973 2975 2976 2976 2979 2979 2981 2982 2982 2982 2982 2981 2980 2979 2977 2974 2972 2968 2964 2960 2955 2948 2943 2937 2929 2920 2913 2906 2899 2893 2886 2880 2873 2867 2861
2967 2967 2959 2962 2965 2968 2968 2967 2967 2968 2970 2970 2970 2972 2973 2975 2975 2975 2974 2974 2973 2972 2971 2970 2968 2965 2961 2957 2953 2948 2942 2937 2930 2922 2915 2908 2901 2895 2888 2881 2875 2869 2863 2859
2950 2948 2953 2953 2957 2959 2962 2962 2963 2963 2963 2964 2965 2966 2967 2967 2967 2966 2965 2966 2965 2965 2964 2962 2961 2958 2955 2951 2946 2942 2936 2930 2924 2917 2911 2903 2896 2890 2883 2876 2870 2864 2858 2853
2941 2939 2942 2946 2951 2954 2956 2957 2956 2957 2957 2957 2958 2958 2958 2959 2958 2958 2958 2958 2959 2958 2957 2956 2953 2951 2948 2944 2940 2935 2930 2924 2919 2912 2906 2899 2892 2885 2878 2871 2865 2859 2853 2847
2927 2929 2934 2937 2942 2947 2949 2949 2948 2949 2950 2949 2949 2949 2949 2950 2949 2950 2950 2952 2953 2952 2951 2949 2946 2944 2941 2937 2933 2929 2925 2919 2914 2907 2901 2894 2889 2880 2874 2867 2858 2851 2846 2841
2914 2923 2928 2931 2934 2937 2938 2940 2940 2941 2942 2942 2941 2940 2940 2941 2941 2942 2943 2946 2947 2946 2944 2942 2940 2938 2935 2931 2928 2924 2920 2914 2908 2902 2896 2890 2883 2880 2873 2864 2857 2851 2845 2837
2912 2917 2920 2923 2925 2928 2929 2930 2931 2932 2932 2932 2932 2932 2932 2933 2934 2935 2937 2940 2940 2940 2938 2936 2934 2933 2930 2927 2923 2920 2914 2909 2903 2897 2892 2886 2879 2872 2866 2864 2855 2849 2842 2836
2904 2908 2911 2913 2916 2918 2920 2921 2922 2922 2922 2922 2922 2923 2924 2925 2927 2930 2932 2934 2934 2933 2932 2930 2929 2927 2925 2922 2919 2915 2910 2905 2900 2894 2888 2882 2875 2869 2862 2855 2850 2846 2840 2831
2895 2899 2903 2905 2907 2909 2911 2912 2913 2913 2912 2912 2913 2915 2918 2920 2922 2925 2928 2929 2929 2927 2926 2926 2924 2922 2920 2918 2915 2910 2906 2901 2896 2891 2885 2878 2873 2867 2861 2854 2847 2841 2835 2830
2886 2890 2893 2896 2898 2900 2901 2902 2902 2902 2902 2904 2907 2911 2913 2916 2918 2921 2923 2924 2923 2923 2922 2921 2919 2918 2916 2914 2910 2906 2902 2898 2892 2887 2883 2877 2871 2865 2858 2852 2846 2839 2831 2824
2876 2880 2884 2884 2886 2889 2890 2891 2891 2893 2896 2900 2904 2907 2909 2913 2916 2918 2918 2918 2918 2918 2917 2917 2915 2914 2912 2910 2906 2903 2899 2895 2890 2885 2881 2875 2868 2862 2856 2850 2844 2837 2830 2823
2866 2869 2872 2874 2877 2880 2880 2882 2886 2891 2895 2898 2900 2903 2907 2910 2913 2914 2914 2914 2914 2914 2913 2912 2911 2910 2907 2905 2903 2900 2896 2892 2887 2882 2878 2874 2867 2861 2855 2849 2843 2836 2830 2823
2860 2864 2866 2868 2871 2874 2878 2882 2886 2891 2893 2895 2898 2903 2906 2907 2908 2909 2909 2909 2909 2909 2909 2909 2907 2905 2903 2902 2900 2897 2894 2890 2886 2882 2876 2872 2867 2861 2855 2849 2842 2836 2829 2823
2857 2861 2864 2867 2872 2877 2881 2884 2887 2889 2892 2896 2899 2901 2902 2904 2904 2905 2905 2905 2905 2906 2905 2904 2903 2902 2900 2899 2897 2894 2891 2887 2884 2880 2875 2871 2866 2860 2854 2849 2842 2836 2830 2823
2863 2867 2870 2873 2876 2879 2881 2883 2886 2889 2893 2895 2896 2898 2899 2900 2901 2901 2902 2902 2902 2902 2902 2901 2900 2898 2897 2896 2894 2891 2889 2886 2882 2879 2874 2870 2865 2860 2854 2848 2842 2836 2831 2825
2870 2872 2875 2877 2879 2881 2882 2885 2887 2890 2891 2893 2895 2896 2897 2898 2898 2898 2898 2899 2899 2898 2898 2897 2896 2895 2894 2893 2891 2889 2887 2884 2881 2877 2873 2869 2864 2859 2854 2848 2843 2837 2832 2827
2875 2877 2878 2879 2881 2883 2885 2887 2888 2889 2890 2891 2892 2893 2894 2894 2895 2895 2895 2895 2894 2894 2894 2894 2894 2893 2892 2891 2890 2888 2886 2883 2879 2876 2872 2868 2863 2859 2854 2849 2844 2839 2834 2829
2879 2880 2881 2883 2884 2885 2886 2886 2887 2888 2889 2889 2889 2890 2891 2891 2891 2891 2891 2891 2891 2891 2891 2891 2891 2890 2889 2889 2888 2886 2884 2882 2878 2876 2872 2868 2864 2859 2855 2851 2846 2841 2836 2832
2881 2882 2882 2883 2884 2884 2885 2886 2886 2886 2886 2887 2887 2887 2887 2887 2888 2887 2887 2887 2887 2887 2888 2888 2888 2887 2886 2886 2885 2883 2882 2880 2878 2875 2872 2868 2864 2860 2855 2851 2847 2843 2839 2834
2882 2881 2882 2883 2883 2883 2884 2884 2884 2884 2884 2883 2883 2883 2883 2883 2883 2883 2883 2883 2883 2883 2883 2883 2884 2884 2883 2882 2882 2881 2879 2877 2875 2873 2871 2868 2864 2860 2856 2852 2849 2845 2841 2836
2882 2882 2882 2882 2881 2881 2880 2880 2880 2880 2880 2880 2880 2879 2879 2878 2878 2879 2879 2878 2878 2878 2879 2880 2880 2880 2879 2879 2878 2877 2876 2875 2873 2871 2869 2867 2864 2861 2857 2853 2850 2846 2843 2839